Time,TemperatureF,DewpointF,PressureIn,WindDirection,WindDirectionDegrees,WindSpeedMPH,WindSpeedGustMPH,Humidity,HourlyPrecipIn,Conditions,Clouds,dailyrainin,SoftwareType,DateUTC
2013-10-09 00:01:00,56.8,34.0,29.73,SSW,192,0.0,0.0,42,0.00,,---,0.00,VWS V14.01,2013-10-09 07:01:00,
2013-10-09 00:06:00,56.8,34.0,29.73,SSW,192,0.0,0.0,42,0.00,,---,0.00,VWS V14.01,2013-10-09 07:06:00,
2013-10-09 00:11:00,56.3,33.5,29.73,SSW,192,0.0,0.0,42,0.00,,---,0.00,VWS V14.01,2013-10-09 07:11:00,
2013-10-09 00:16:00,56.1,33.4,29.73,SSW,192,0.0,0.0,42,0.00,,---,0.00,VWS V14.01,2013-10-09 07:16:00,
2013-10-09 00:21:00,56.1,33.4,29.73,SSW,192,0.0,0.0,42,0.00,,---,0.00,VWS V14.01,2013-10-09 07:21:00,
2013-10-09 00:26:00,55.2,33.1,29.73,SSW,192,0.0,0.0,43,0.00,,---,0.00,VWS V14.01,2013-10-09 07:26:00,
2013-10-09 00:31:00,55.2,33.1,29.70,SSW,192,0.0,0.0,43,0.00,,---,0.00,VWS V14.01,2013-10-09 07:31:00,
2013-10-09 00:36:00,55.2,33.1,29.70,SSW,192,0.0,0.0,43,0.00,,---,0.00,VWS V14.01,2013-10-09 07:36:00,
2013-10-09 00:41:00,54.5,32.5,29.70,SSW,192,0.0,0.0,43,0.00,,---,0.00,VWS V14.01,2013-10-09 07:41:00,
2013-10-09 00:46:00,54.0,32.0,29.70,SSW,192,0.0,0.0,43,0.00,,---,0.00,VWS V14.01,2013-10-09 07:46:00,
2013-10-09 00:51:00,53.6,31.7,29.70,SSW,192,0.0,0.0,43,0.00,,---,0.00,VWS V14.01,2013-10-09 07:51:00,
2013-10-09 00:56:00,53.4,31.5,29.70,SSW,192,0.0,0.0,43,0.00,,---,0.00,VWS V14.01,2013-10-09 07:56:00,
2013-10-09 01:01:00,53.4,31.5,29.70,SSW,192,0.0,0.0,43,0.00,,---,0.00,VWS V14.01,2013-10-09 08:01:00,
2013-10-09 01:06:00,53.4,31.5,29.70,South,186,0.0,0.0,43,0.00,,---,0.00,VWS V14.01,2013-10-09 08:06:00,
2013-10-09 01:11:00,54.5,32.5,29.70,South,187,0.0,0.0,43,0.00,,---,0.00,VWS V14.01,2013-10-09 08:11:00,
2013-10-09 01:16:00,55.6,32.9,29.70,SSW,212,0.0,0.0,42,0.00,,---,0.00,VWS V14.01,2013-10-09 08:16:00,
2013-10-09 01:21:00,55.4,32.7,29.70,SSW,212,0.0,0.0,42,0.00,,---,0.00,VWS V14.01,2013-10-09 08:21:00,
2013-10-09 01:26:00,55.4,32.7,29.70,SSW,212,0.0,0.0,42,0.00,,---,0.00,VWS V14.01,2013-10-09 08:26:00,
2013-10-09 01:31:00,55.4,32.7,29.70,SSW,212,0.0,0.0,42,0.00,,---,0.00,VWS V14.01,2013-10-09 08:31:00,
2013-10-09 01:36:00,54.9,32.8,29.70,SSW,212,0.0,0.0,43,0.00,,---,0.00,VWS V14.01,2013-10-09 08:36:00,
2013-10-09 01:41:00,54.9,32.8,29.70,SSW,212,0.0,0.0,43,0.00,,---,0.00,VWS V14.01,2013-10-09 08:41:00,
2013-10-09 01:46:00,54.9,32.8,29.70,SSW,212,0.0,0.0,43,0.00,,---,0.00,VWS V14.01,2013-10-09 08:46:00,
2013-10-09 01:52:00,54.9,32.8,29.70,SSW,212,0.0,0.0,43,0.00,,---,0.00,VWS V14.01,2013-10-09 08:52:00,
2013-10-09 01:57:00,54.9,32.8,29.70,SSW,212,0.0,0.0,43,0.00,,---,0.00,VWS V14.01,2013-10-09 08:57:00,
2013-10-09 02:02:00,53.6,31.7,29.70,SSW,212,0.0,0.0,43,0.00,,---,0.00,VWS V14.01,2013-10-09 09:02:00,
2013-10-09 02:07:00,53.6,31.7,29.70,SSW,212,0.0,0.0,43,0.00,,---,0.00,VWS V14.01,2013-10-09 09:07:00,
2013-10-09 02:12:00,53.6,31.7,29.70,SSW,212,0.0,0.0,43,0.00,,---,0.00,VWS V14.01,2013-10-09 09:12:00,
2013-10-09 02:17:00,53.6,31.7,29.70,SSW,212,0.0,0.0,43,0.00,,---,0.00,VWS V14.01,2013-10-09 09:17:00,
2013-10-09 02:22:00,52.5,30.7,29.70,SSW,212,0.0,0.0,43,0.00,,---,0.00,VWS V14.01,2013-10-09 09:22:00,
2013-10-09 02:27:00,52.2,30.4,29.70,SSW,212,0.0,0.0,43,0.00,,---,0.00,VWS V14.01,2013-10-09 09:27:00,
2013-10-09 02:32:00,52.0,30.2,29.70,SSW,212,0.0,0.0,43,0.00,,---,0.00,VWS V14.01,2013-10-09 09:32:00,
2013-10-09 02:37:00,52.0,30.2,29.70,SSW,212,0.0,0.0,43,0.00,,---,0.00,VWS V14.01,2013-10-09 09:37:00,
2013-10-09 02:42:00,52.3,30.5,29.70,SSW,212,0.0,0.0,43,0.00,,---,0.00,VWS V14.01,2013-10-09 09:42:00,
2013-10-09 02:47:00,52.2,30.4,29.70,SSW,212,0.0,0.0,43,0.00,,---,0.00,VWS V14.01,2013-10-09 09:47:00,
2013-10-09 02:52:00,52.3,30.5,29.70,SSW,212,0.0,0.0,43,0.00,,---,0.00,VWS V14.01,2013-10-09 09:52:00,
2013-10-09 02:57:00,52.3,30.5,29.70,SSW,212,0.0,0.0,43,0.00,,---,0.00,VWS V14.01,2013-10-09 09:57:00,
2013-10-09 03:02:00,53.2,31.3,29.70,SSW,212,0.0,0.0,43,0.00,,---,0.00,VWS V14.01,2013-10-09 10:02:00,
2013-10-09 03:07:00,53.1,31.2,29.70,SSW,212,0.0,0.0,43,0.00,,---,0.00,VWS V14.01,2013-10-09 10:07:00,
2013-10-09 03:12:00,52.7,30.9,29.70,SSW,212,0.0,0.0,43,0.00,,---,0.00,VWS V14.01,2013-10-09 10:12:00,
2013-10-09 03:17:00,52.7,30.9,29.70,SSW,212,0.0,0.0,43,0.00,,---,0.00,VWS V14.01,2013-10-09 10:17:00,
2013-10-09 03:22:00,51.8,30.0,29.70,SSW,212,0.0,0.0,43,0.00,,---,0.00,VWS V14.01,2013-10-09 10:22:00,
2013-10-09 03:27:00,51.8,30.0,29.70,SSW,212,0.0,0.0,43,0.00,,---,0.00,VWS V14.01,2013-10-09 10:27:00,
2013-10-09 03:32:00,52.0,30.2,29.70,SSW,212,0.0,0.0,43,0.00,,---,0.00,VWS V14.01,2013-10-09 10:32:00,
2013-10-09 03:37:00,52.0,30.2,29.70,SSW,212,0.0,0.0,43,0.00,,---,0.00,VWS V14.01,2013-10-09 10:37:00,
2013-10-09 03:42:00,52.0,30.2,29.70,SSW,212,0.0,0.0,43,0.00,,---,0.00,VWS V14.01,2013-10-09 10:42:00,
2013-10-09 03:47:00,52.0,30.2,29.70,SSW,212,0.0,0.0,43,0.00,,---,0.00,VWS V14.01,2013-10-09 10:47:00,
2013-10-09 03:52:00,52.3,30.5,29.70,SSW,212,0.0,0.0,43,0.00,,---,0.00,VWS V14.01,2013-10-09 10:52:00,
2013-10-09 03:57:00,52.0,30.2,29.70,SSW,212,0.0,0.0,43,0.00,,---,0.00,VWS V14.01,2013-10-09 10:57:00,
2013-10-09 04:02:00,51.8,30.0,29.70,SSW,212,0.0,0.0,43,0.00,,---,0.00,VWS V14.01,2013-10-09 11:02:00,
2013-10-09 04:07:00,51.8,30.0,29.70,SSW,212,0.0,0.0,43,0.00,,---,0.00,VWS V14.01,2013-10-09 11:07:00,
2013-10-09 04:12:00,51.4,30.3,29.70,SSW,212,0.0,0.0,44,0.00,,---,0.00,VWS V14.01,2013-10-09 11:12:00,
2013-10-09 04:17:00,51.1,30.0,29.70,SSW,212,0.0,0.0,44,0.00,,---,0.00,VWS V14.01,2013-10-09 11:17:00,
2013-10-09 04:22:00,51.1,30.0,29.70,SSW,212,0.0,0.0,44,0.00,,---,0.00,VWS V14.01,2013-10-09 11:22:00,
2013-10-09 04:27:00,51.1,30.0,29.70,SSW,212,0.0,0.0,44,0.00,,---,0.00,VWS V14.01,2013-10-09 11:27:00,
2013-10-09 04:32:00,51.1,30.0,29.70,SSW,212,0.0,0.0,44,0.00,,---,0.00,VWS V14.01,2013-10-09 11:32:00,
2013-10-09 04:37:00,51.1,30.0,29.70,SSW,212,0.0,0.0,44,0.00,,---,0.00,VWS V14.01,2013-10-09 11:37:00,
2013-10-09 04:42:00,52.2,30.4,29.70,SSW,212,0.0,0.0,43,0.00,,---,0.00,VWS V14.01,2013-10-09 11:42:00,
2013-10-09 04:47:00,52.2,30.4,29.70,SSW,212,0.0,0.0,43,0.00,,---,0.00,VWS V14.01,2013-10-09 11:47:00,
2013-10-09 04:52:00,52.2,30.4,29.70,SSW,212,0.0,0.0,43,0.00,,---,0.00,VWS V14.01,2013-10-09 11:52:00,
2013-10-09 04:57:00,51.6,30.4,29.70,SSW,212,0.0,0.0,44,0.00,,---,0.00,VWS V14.01,2013-10-09 11:57:00,
2013-10-09 05:02:00,51.6,30.4,29.70,SSW,212,0.0,0.0,44,0.00,,---,0.00,VWS V14.01,2013-10-09 12:02:00,
2013-10-09 05:07:00,51.4,30.3,29.70,SSW,211,0.0,0.0,44,0.00,,---,0.00,VWS V14.01,2013-10-09 12:07:00,
2013-10-09 05:10:00,51.4,30.3,29.70,SSW,211,0.0,0.0,44,0.00,,---,0.00,VWS V14.01,2013-10-09 12:10:00,
2013-10-09 05:15:00,51.3,30.1,29.70,SSW,211,0.0,0.0,44,0.00,,---,0.00,VWS V14.01,2013-10-09 12:15:00,
2013-10-09 05:20:00,51.3,30.1,29.70,SSW,206,0.0,0.0,44,0.00,,---,0.00,VWS V14.01,2013-10-09 12:20:00,
2013-10-09 05:25:00,51.3,30.1,29.70,SSW,206,0.0,0.0,44,0.00,,---,0.00,VWS V14.01,2013-10-09 12:25:00,
2013-10-09 05:30:00,51.1,30.0,29.67,SSW,206,0.0,0.0,44,0.00,,---,0.00,VWS V14.01,2013-10-09 12:30:00,
2013-10-09 05:35:00,50.7,29.6,29.67,SSW,206,0.0,0.0,44,0.00,,---,0.00,VWS V14.01,2013-10-09 12:35:00,
2013-10-09 05:40:00,50.7,29.6,29.67,SSW,206,0.0,0.0,44,0.00,,---,0.00,VWS V14.01,2013-10-09 12:40:00,
2013-10-09 05:45:00,50.7,29.6,29.67,SSW,206,0.0,0.0,44,0.00,,---,0.00,VWS V14.01,2013-10-09 12:45:00,
2013-10-09 05:50:00,50.7,29.6,29.67,SSW,206,0.0,0.0,44,0.00,,---,0.00,VWS V14.01,2013-10-09 12:50:00,
2013-10-09 05:55:00,50.2,29.1,29.67,SSW,206,0.0,0.0,44,0.00,,---,0.00,VWS V14.01,2013-10-09 12:55:00,
2013-10-09 06:00:00,50.2,29.1,29.67,SSW,207,0.0,0.0,44,0.00,,---,0.00,VWS V14.01,2013-10-09 13:00:00,
2013-10-09 06:05:00,50.2,29.1,29.67,SSW,207,0.0,0.0,44,0.00,,---,0.00,VWS V14.01,2013-10-09 13:05:00,
2013-10-09 06:10:00,50.2,29.1,29.67,SSW,207,0.0,0.0,44,0.00,,---,0.00,VWS V14.01,2013-10-09 13:10:00,
2013-10-09 06:15:00,48.6,27.6,29.67,SSW,207,0.0,0.0,44,0.00,,---,0.00,VWS V14.01,2013-10-09 13:15:00,
2013-10-09 06:20:00,48.6,27.6,29.67,SSW,207,0.0,0.0,44,0.00,,---,0.00,VWS V14.01,2013-10-09 13:20:00,
2013-10-09 06:25:00,48.6,27.6,29.70,ESE,121,0.0,0.0,44,0.00,,---,0.00,VWS V14.01,2013-10-09 13:25:00,
2013-10-09 06:30:00,48.6,27.6,29.70,ESE,123,0.0,0.0,44,0.00,,---,0.00,VWS V14.01,2013-10-09 13:30:00,
2013-10-09 06:35:00,48.6,27.6,29.67,ESE,123,0.0,0.0,44,0.00,,---,0.00,VWS V14.01,2013-10-09 13:35:00,
2013-10-09 06:40:00,48.6,27.6,29.67,ESE,123,0.0,0.0,44,0.00,,---,0.00,VWS V14.01,2013-10-09 13:40:00,
2013-10-09 06:46:00,50.4,29.3,29.67,ESE,123,0.0,0.0,44,0.00,,---,0.00,VWS V14.01,2013-10-09 13:46:00,
2013-10-09 06:51:00,50.4,29.3,29.67,ESE,123,0.0,0.0,44,0.00,,---,0.00,VWS V14.01,2013-10-09 13:51:00,
2013-10-09 06:56:00,51.4,30.3,29.70,ESE,123,0.0,0.0,44,0.00,,---,0.00,VWS V14.01,2013-10-09 13:56:00,
2013-10-09 07:01:00,51.3,30.1,29.70,SSE,164,0.0,0.0,44,0.00,,---,0.00,VWS V14.01,2013-10-09 14:01:00,
2013-10-09 07:06:00,51.3,30.1,29.70,WSW,257,0.0,0.0,44,0.00,,---,0.00,VWS V14.01,2013-10-09 14:06:00,
2013-10-09 07:11:00,51.6,30.4,29.70,WSW,258,0.0,0.0,44,0.00,,---,0.00,VWS V14.01,2013-10-09 14:11:00,
2013-10-09 07:16:00,51.6,30.4,29.70,West,260,0.0,0.0,44,0.00,,---,0.00,VWS V14.01,2013-10-09 14:16:00,
2013-10-09 07:21:00,51.6,30.4,29.70,West,260,0.0,0.0,44,0.00,,---,0.00,VWS V14.01,2013-10-09 14:21:00,
2013-10-09 07:26:00,55.8,33.0,29.70,WSW,237,0.0,0.0,42,0.00,,---,0.00,VWS V14.01,2013-10-09 14:26:00,
2013-10-09 07:31:00,56.7,33.8,29.70,West,279,0.0,0.0,42,0.00,,---,0.00,VWS V14.01,2013-10-09 14:31:00,
2013-10-09 07:36:00,56.7,33.8,29.70,West,280,0.0,0.0,42,0.00,,---,0.00,VWS V14.01,2013-10-09 14:36:00,
2013-10-09 07:41:00,59.0,36.0,29.70,West,281,0.0,0.0,42,0.00,,---,0.00,VWS V14.01,2013-10-09 14:41:00,
2013-10-09 07:46:00,59.0,36.0,29.70,NW,325,0.0,0.0,42,0.00,,---,0.00,VWS V14.01,2013-10-09 14:46:00,
2013-10-09 07:51:00,59.0,36.0,29.70,NW,325,0.0,0.0,42,0.00,,---,0.00,VWS V14.01,2013-10-09 14:51:00,
2013-10-09 07:56:00,61.3,37.5,29.70,NNW,348,0.0,0.0,41,0.00,,---,0.00,VWS V14.01,2013-10-09 14:56:00,
2013-10-09 08:01:00,62.2,38.3,29.70,NNE,15,0.0,0.0,41,0.00,,---,0.00,VWS V14.01,2013-10-09 15:01:00,
2013-10-09 08:06:00,62.2,38.3,29.70,ENE,59,0.0,0.0,41,0.00,,---,0.00,VWS V14.01,2013-10-09 15:06:00,
2013-10-09 08:11:00,64.8,39.9,29.70,East,91,0.0,0.0,40,0.00,,---,0.00,VWS V14.01,2013-10-09 15:11:00,
2013-10-09 08:16:00,65.7,40.7,29.70,ENE,78,0.0,0.0,40,0.00,,---,0.00,VWS V14.01,2013-10-09 15:16:00,
2013-10-09 08:21:00,65.7,40.7,29.70,East,79,0.0,0.0,40,0.00,,---,0.00,VWS V14.01,2013-10-09 15:21:00,
2013-10-09 08:26:00,66.4,41.3,29.70,ESE,103,4.0,4.0,40,0.00,,---,0.00,VWS V14.01,2013-10-09 15:26:00,
2013-10-09 08:31:00,66.9,41.8,29.70,SE,137,3.1,3.1,40,0.00,,---,0.00,VWS V14.01,2013-10-09 15:31:00,
2013-10-09 08:36:00,67.3,42.2,29.70,ESE,102,3.6,4.0,40,0.00,,---,0.00,VWS V14.01,2013-10-09 15:36:00,
2013-10-09 08:41:00,67.6,42.5,29.70,East,101,6.3,6.3,40,0.00,,---,0.00,VWS V14.01,2013-10-09 15:41:00,
2013-10-09 08:46:00,67.6,42.5,29.70,East,90,4.0,4.0,40,0.00,,---,0.00,VWS V14.01,2013-10-09 15:46:00,
2013-10-09 08:51:00,67.6,42.5,29.70,NE,38,0.0,0.0,40,0.00,,---,0.00,VWS V14.01,2013-10-09 15:51:00,
2013-10-09 08:56:00,68.5,43.3,29.70,NE,43,0.0,0.0,40,0.00,,---,0.00,VWS V14.01,2013-10-09 15:56:00,
2013-10-09 09:01:00,68.0,42.8,29.70,NE,40,0.0,0.0,40,0.00,,---,0.00,VWS V14.01,2013-10-09 16:01:00,
2013-10-09 09:06:00,68.0,42.8,29.70,NE,35,0.0,0.0,40,0.00,,---,0.00,VWS V14.01,2013-10-09 16:06:00,
2013-10-09 09:11:00,66.7,41.7,29.70,ESE,117,0.0,0.0,40,0.00,,---,0.00,VWS V14.01,2013-10-09 16:11:00,
2013-10-09 09:16:00,66.7,41.7,29.70,NE,56,0.0,0.0,40,0.00,,---,0.00,VWS V14.01,2013-10-09 16:16:00,
2013-10-09 09:21:00,67.8,42.6,29.70,ESE,120,0.0,0.0,40,0.00,,---,0.00,VWS V14.01,2013-10-09 16:21:00,
2013-10-09 09:27:00,68.9,43.6,29.70,ESE,119,0.0,0.0,40,0.00,,---,0.00,VWS V14.01,2013-10-09 16:27:00,
2013-10-09 09:32:00,68.9,43.6,29.70,SE,130,0.0,0.0,40,0.00,,---,0.00,VWS V14.01,2013-10-09 16:32:00,
2013-10-09 09:37:00,69.4,44.1,29.70,SSE,149,0.0,0.0,40,0.00,,---,0.00,VWS V14.01,2013-10-09 16:37:00,
2013-10-09 09:42:00,69.4,44.1,29.70,SE,143,0.0,0.0,40,0.00,,---,0.00,VWS V14.01,2013-10-09 16:42:00,
2013-10-09 09:47:00,70.2,44.1,29.70,SE,130,0.0,0.0,39,0.00,,---,0.00,VWS V14.01,2013-10-09 16:47:00,
2013-10-09 09:52:00,70.2,44.1,29.70,East,94,0.0,0.0,39,0.00,,---,0.00,VWS V14.01,2013-10-09 16:52:00,
2013-10-09 09:57:00,70.5,44.4,29.70,ESE,112,0.0,0.0,39,0.00,,---,0.00,VWS V14.01,2013-10-09 16:57:00,
2013-10-09 10:02:00,70.5,44.4,29.70,SE,138,0.0,0.0,39,0.00,,---,0.00,VWS V14.01,2013-10-09 17:02:00,
2013-10-09 10:07:00,71.2,45.0,29.70,SSE,158,0.0,0.0,39,0.00,,---,0.00,VWS V14.01,2013-10-09 17:07:00,
2013-10-09 10:12:00,71.1,44.9,29.70,ESE,119,0.0,0.0,39,0.00,,---,0.00,VWS V14.01,2013-10-09 17:12:00,
2013-10-09 10:17:00,71.1,44.9,29.70,SE,135,0.0,0.0,39,0.00,,---,0.00,VWS V14.01,2013-10-09 17:17:00,
2013-10-09 10:22:00,71.4,45.2,29.70,ESE,112,0.0,0.0,39,0.00,,---,0.00,VWS V14.01,2013-10-09 17:22:00,
2013-10-09 10:27:00,71.4,45.2,29.70,ESE,113,0.0,0.0,39,0.00,,---,0.00,VWS V14.01,2013-10-09 17:27:00,
2013-10-09 10:32:00,71.4,45.2,29.70,SE,125,0.0,0.0,39,0.00,,---,0.00,VWS V14.01,2013-10-09 17:32:00,
2013-10-09 10:37:00,71.6,45.4,29.70,SE,138,0.0,0.0,39,0.00,,---,0.00,VWS V14.01,2013-10-09 17:37:00,
2013-10-09 10:42:00,70.9,44.7,29.70,ESE,119,0.0,0.0,39,0.00,,---,0.00,VWS V14.01,2013-10-09 17:42:00,
2013-10-09 10:47:00,71.2,45.0,29.70,ESE,103,0.0,0.0,39,0.00,,---,0.00,VWS V14.01,2013-10-09 17:47:00,
2013-10-09 10:52:00,71.2,45.0,29.70,ESE,121,0.0,0.0,39,0.00,,---,0.00,VWS V14.01,2013-10-09 17:52:00,
2013-10-09 10:57:00,72.3,46.0,29.70,SE,146,0.0,0.0,39,0.00,,---,0.00,VWS V14.01,2013-10-09 17:57:00,
2013-10-09 11:02:00,73.2,46.8,29.70,SE,143,0.0,0.0,39,0.00,,---,0.00,VWS V14.01,2013-10-09 18:02:00,
2013-10-09 11:07:00,72.9,46.5,29.70,SSW,204,0.0,0.0,39,0.00,,---,0.00,VWS V14.01,2013-10-09 18:07:00,
2013-10-09 11:12:00,72.9,46.5,29.70,SSE,156,0.0,0.0,39,0.00,,---,0.00,VWS V14.01,2013-10-09 18:12:00,
2013-10-09 11:17:00,71.8,45.5,29.70,SE,128,0.0,0.0,39,0.00,,---,0.00,VWS V14.01,2013-10-09 18:17:00,
2013-10-09 11:22:00,71.8,45.5,29.70,SE,140,0.0,0.0,39,0.00,,---,0.00,VWS V14.01,2013-10-09 18:22:00,
2013-10-09 11:27:00,72.0,45.7,29.70,SSE,162,0.0,0.0,39,0.00,,---,0.00,VWS V14.01,2013-10-09 18:27:00,
2013-10-09 11:32:00,72.0,45.7,29.67,East,101,0.0,0.0,39,0.00,,---,0.00,VWS V14.01,2013-10-09 18:32:00,
2013-10-09 11:37:00,73.4,46.3,29.67,SSE,158,0.0,0.0,38,0.00,,---,0.00,VWS V14.01,2013-10-09 18:37:00,
2013-10-09 11:42:00,73.0,46.6,29.67,SE,141,0.0,0.0,39,0.00,,---,0.00,VWS V14.01,2013-10-09 18:42:00,
2013-10-09 11:47:00,73.4,46.3,29.67,SSE,147,0.0,0.0,38,0.00,,---,0.00,VWS V14.01,2013-10-09 18:47:00,
2013-10-09 11:52:00,73.4,46.3,29.67,SSE,156,0.0,0.0,38,0.00,,---,0.00,VWS V14.01,2013-10-09 18:52:00,
2013-10-09 11:57:00,73.4,46.3,29.67,SE,146,0.0,0.0,38,0.00,,---,0.00,VWS V14.01,2013-10-09 18:57:00,
2013-10-09 12:02:00,73.6,46.4,29.67,ESE,118,0.0,0.0,38,0.00,,---,0.00,VWS V14.01,2013-10-09 19:02:00,
2013-10-09 12:07:00,73.6,46.4,29.67,ESE,114,0.0,0.0,38,0.00,,---,0.00,VWS V14.01,2013-10-09 19:07:00,
2013-10-09 12:12:00,73.9,46.8,29.67,SE,137,0.0,0.0,38,0.00,,---,0.00,VWS V14.01,2013-10-09 19:12:00,
2013-10-09 12:18:00,74.1,46.9,29.67,SSE,149,0.0,0.0,38,0.00,,---,0.00,VWS V14.01,2013-10-09 19:18:00,
2013-10-09 12:23:00,74.3,47.1,29.67,ESE,114,0.0,0.0,38,0.00,,---,0.00,VWS V14.01,2013-10-09 19:23:00,
2013-10-09 12:28:00,74.3,47.1,29.67,SE,134,0.0,0.0,38,0.00,,---,0.00,VWS V14.01,2013-10-09 19:28:00,
2013-10-09 12:33:00,73.4,46.3,29.67,ESE,117,0.0,0.0,38,0.00,,---,0.00,VWS V14.01,2013-10-09 19:33:00,
2013-10-09 12:38:00,73.6,46.4,29.67,SE,128,0.0,0.0,38,0.00,,---,0.00,VWS V14.01,2013-10-09 19:38:00,
2013-10-09 12:43:00,73.4,46.3,29.64,SE,140,0.0,0.0,38,0.00,,---,0.00,VWS V14.01,2013-10-09 19:43:00,
2013-10-09 12:48:00,73.0,46.6,29.64,SE,142,0.0,0.0,39,0.00,,---,0.00,VWS V14.01,2013-10-09 19:48:00,
2013-10-09 12:53:00,72.5,46.2,29.64,SSE,157,0.0,0.0,39,0.00,,---,0.00,VWS V14.01,2013-10-09 19:53:00,
2013-10-09 12:58:00,72.7,46.3,29.64,SSW,195,0.0,0.0,39,0.00,,---,0.00,VWS V14.01,2013-10-09 19:58:00,
2013-10-09 13:03:00,73.2,46.8,29.64,ESE,117,0.0,0.0,39,0.00,,---,0.00,VWS V14.01,2013-10-09 20:03:00,
2013-10-09 13:08:00,73.2,46.8,29.64,ESE,123,0.0,0.0,39,0.00,,---,0.00,VWS V14.01,2013-10-09 20:08:00,
2013-10-09 13:13:00,73.2,46.8,29.64,East,100,0.0,0.0,39,0.00,,---,0.00,VWS V14.01,2013-10-09 20:13:00,
2013-10-09 13:18:00,73.2,46.8,29.64,SE,127,0.0,0.0,39,0.00,,---,0.00,VWS V14.01,2013-10-09 20:18:00,
2013-10-09 13:23:00,73.4,46.3,29.64,SE,124,0.0,0.0,38,0.00,,---,0.00,VWS V14.01,2013-10-09 20:23:00,
2013-10-09 13:28:00,74.1,46.9,29.64,ESE,122,0.0,0.0,38,0.00,,---,0.00,VWS V14.01,2013-10-09 20:28:00,
2013-10-09 13:33:00,73.9,46.8,29.64,South,174,0.0,0.0,38,0.00,,---,0.00,VWS V14.01,2013-10-09 20:33:00,
2013-10-09 13:38:00,73.8,46.6,29.64,ESE,113,0.0,0.0,38,0.00,,---,0.00,VWS V14.01,2013-10-09 20:38:00,
2013-10-09 13:43:00,72.7,46.3,29.64,SSE,163,0.0,0.0,39,0.00,,---,0.00,VWS V14.01,2013-10-09 20:43:00,
2013-10-09 13:48:00,72.3,46.0,29.64,SE,128,0.0,0.0,39,0.00,,---,0.00,VWS V14.01,2013-10-09 20:48:00,
2013-10-09 13:53:00,73.0,46.6,29.64,SE,131,0.0,0.0,39,0.00,,---,0.00,VWS V14.01,2013-10-09 20:53:00,
2013-10-09 13:58:00,72.0,45.7,29.64,SSE,154,0.0,0.0,39,0.00,,---,0.00,VWS V14.01,2013-10-09 20:58:00,